Wind_Speed
13 15 16 17 17 17 16 16 16 16 15 15 15 14 14 13 12 11 9 8 7 6 6 6 6 6 6 6 8 10 12 13 13 13 11 11 12 13 15 16 18 19 21 23
16 17 16 17 18 17 17 18 17 16 16 16 16 15 14 14 13 12 11 9 8 7 7 7 6 5 5 7 10 12 14 14 14 14 13 12 11 13 14 16 18 21 23 24
20 16 17 17 18 18 18 18 17 16 16 16 16 15 15 15 14 12 11 10 9 9 8 7 5 4 5 7 9 12 14 15 15 15 15 15 14 14 15 17 18 21 23 25
22 20 20 19 19 19 20 19 17 17 16 17 16 18 17 17 15 14 13 12 11 10 8 7 5 4 3 3 6 9 14 16 16 17 18 19 20 21 21 22 22 24 26 28
22 23 22 21 20 20 19 19 18 18 17 18 20 18 20 18 16 15 14 13 12 11 9 7 6 4 3 1 3 5 8 13 17 19 21 23 24 28 29 30 30 30 30 30
22 24 22 21 22 21 21 19 18 17 18 19 20 20 20 18 18 17 16 15 14 12 10 8 7 5 4 2 2 5 7 9 13 16 19 21 24 28 32 34 37 36 35 33
25 26 25 24 24 23 22 20 19 21 22 21 23 23 21 19 18 18 17 16 15 14 13 11 9 8 7 6 3 3 6 9 13 16 19 21 23 27 31 36 40 41 40 37
27 28 27 25 26 24 23 22 22 23 25 26 26 23 20 20 20 19 17 18 17 16 15 13 11 11 11 9 7 6 8 11 14 16 19 21 23 26 30 35 39 43 45 45
30 32 28 28 28 27 24 23 23 25 27 27 26 22 21 21 21 18 17 18 18 18 18 16 14 13 13 13 11 10 11 14 16 18 21 23 26 28 31 34 37 40 44 46
32 31 31 30 30 27 25 25 28 28 29 28 26 22 20 19 20 19 18 18 19 20 19 19 17 16 16 16 16 16 16 17 19 21 23 25 27 30 33 36 38 41 43 48
32 33 31 31 30 27 29 28 29 31 31 29 27 23 21 21 20 19 19 18 20 20 20 20 20 20 20 19 19 20 21 21 23 24 26 28 30 32 36 39 41 44 48 50
33 35 32 33 31 33 32 32 33 34 32 31 28 26 23 23 22 22 20 20 19 20 20 20 21 22 23 24 24 25 26 27 28 28 29 30 33 35 38 42 44 47 50 53
36 37 35 34 35 35 33 30 32 36 35 34 33 26 25 27 27 26 25 23 21 20 21 22 22 24 24 26 27 29 30 31 33 32 33 33 34 37 39 42 46 49 51 55
39 39 37 33 36 35 35 33 36 39 42 35 34 29 28 30 31 31 31 28 24 20 22 22 23 25 26 27 28 30 32 34 35 36 36 36 37 38 41 44 47 50 53 57
43 39 37 36 37 36 40 41 42 45 38 44 32 35 31 34 36 36 35 31 25 25 24 26 27 26 27 28 30 30 31 34 36 37 38 38 40 41 43 46 49 51 54 59
45 42 42 40 41 43 46 45 46 47 45 43 36 36 26 34 37 38 39 34 31 31 28 29 29 31 30 29 30 32 33 36 36 37 39 41 43 43 45 48 52 53 55 59
47 45 45 44 46 50 55 50 49 47 44 40 42 30 34 39 40 40 39 37 38 34 32 31 32 35 33 33 33 33 35 37 38 40 41 42 45 46 48 51 54 54 57 60
52 49 50 49 50 56 55 52 49 49 47 45 44 36 34 39 42 45 44 41 36 35 36 35 37 37 35 36 35 36 37 39 40 41 42 45 47 49 51 53 56 57 60 62
58 56 55 56 54 57 59 53 52 50 48 47 47 42 35 41 45 45 46 44 42 41 41 42 43 39 38 39 39 39 41 42 42 44 45 48 50 52 54 55 57 59 62 63
65 62 63 61 60 62 60 57 55 53 53 45 46 44 41 42 50 40 49 51 49 48 47 46 44 44 42 42 43 44 44 45 47 48 50 51 53 55 56 58 60 62 65 66
70 68 67 65 66 66 59 57 55 55 50 47 45 45 43 44 47 50 50 50 53 53 50 46 46 46 45 44 45 46 47 48 49 50 53 54 56 57 59 61 63 64 67 69
75 74 73 71 71 71 61 60 57 56 51 48 45 45 46 48 48 50 51 51 53 54 54 51 48 46 46 46 47 48 48 50 51 54 56 57 58 59 62 63 65 67 69 72
85 78 76 77 73 70 67 64 64 61 58 52 49 46 48 50 50 51 53 54 53 52 52 51 50 50 49 49 49 49 50 51 54 57 59 58 59 62 64 67 69 70 73 76
84 85 83 81 73 74 72 71 67 62 59 59 57 54 53 55 54 55 56 58 58 57 55 54 53 52 52 50 50 52 53 56 59 60 60 59 62 65 67 69 71 74 76 79
87 86 88 86 76 76 76 74 73 69 67 63 61 58 56 57 58 60 60 59 58 58 57 56 56 54 52 53 54 54 56 59 60 61 60 62 65 67 70 72 74 77 78 81
91 88 90 87 80 83 80 79 76 74 71 69 68 66 64 63 62 62 62 62 62 61 61 60 59 57 55 57 56 58 59 60 61 62 63 65 67 69 72 74 76 78 80 80
Wind_Direction
197 194 189 187 190 192 196 201 203 202 200 196 195 194 193 190 189 193 191 182 168 152 134 114 103 87 67 42 18 12 8 6 5 3 1 352 350 348 341 336 332 333 333 331
211 212 204 201 202 202 204 208 206 203 200 201 202 200 200 196 197 194 189 180 165 154 146 142 125 106 84 52 31 18 12 7 5 1 359 356 348 341 337 334 332 330 328 326
219 215 215 209 206 206 207 208 206 202 203 205 207 206 205 202 200 195 190 180 171 166 166 159 147 130 98 67 48 36 25 15 8 5 4 1 357 348 338 330 328 325 323 322
221 217 216 214 210 207 208 210 206 206 207 207 217 213 212 205 201 197 194 184 179 180 179 174 173 152 125 84 56 47 42 35 28 23 18 13 8 3 355 346 335 326 321 319
218 218 218 217 216 215 212 214 213 213 215 216 220 219 211 208 205 203 195 189 189 193 193 194 194 180 177 95 39 29 29 28 27 26 26 26 20 15 8 359 349 336 325 318
217 219 221 220 222 219 219 218 221 222 224 225 224 222 213 212 210 206 199 198 198 203 207 209 211 211 221 261 354 6 7 2 6 11 11 9 8 3 359 354 349 344 337 324
221 222 223 223 223 222 222 222 224 229 229 230 228 221 215 214 214 210 209 209 211 215 219 221 226 232 238 253 285 330 344 350 352 355 356 357 356 354 357 358 355 351 343 336
225 227 225 226 226 222 222 222 226 229 229 227 227 221 216 217 215 212 214 217 222 228 230 233 239 243 249 258 270 298 319 330 337 340 344 347 346 344 347 352 351 351 351 346
228 229 229 226 225 223 223 225 229 232 231 229 228 226 222 218 215 218 223 226 229 237 241 242 247 252 257 265 273 286 301 311 320 329 335 337 337 335 339 342 344 347 349 347
230 229 228 223 224 223 224 225 229 231 230 230 229 227 223 218 220 230 238 240 241 244 246 248 252 258 264 269 275 283 292 303 311 318 323 327 329 328 330 333 337 340 341 346
229 230 225 223 224 223 223 226 230 232 233 232 231 227 223 221 228 237 243 247 248 250 251 255 259 264 269 274 279 283 289 297 303 308 315 319 322 323 324 328 330 334 336 339
226 226 221 223 220 225 224 226 230 232 232 234 233 229 229 231 235 241 246 252 253 257 260 261 264 268 273 277 281 285 290 295 299 303 308 312 316 320 320 324 326 328 332 332
224 224 220 221 223 227 230 230 234 237 237 234 236 231 236 238 241 245 249 253 257 262 266 268 273 275 277 281 283 284 286 291 295 300 304 307 311 315 317 319 322 324 325 328
226 227 226 226 227 229 231 232 234 237 235 235 237 237 236 244 247 248 250 253 259 268 270 273 276 280 286 287 287 288 289 291 293 297 301 304 308 312 313 316 317 318 322 324
231 229 228 227 231 230 231 232 235 238 240 240 237 240 242 247 248 251 253 254 261 266 272 274 277 282 287 289 289 292 292 291 292 295 299 302 306 309 311 312 313 316 320 323
237 233 232 228 232 233 235 235 237 239 238 242 243 243 249 255 252 254 256 257 261 265 269 273 278 284 286 289 292 294 293 291 295 296 299 301 303 306 308 309 312 315 318 321
238 239 239 235 235 238 239 237 240 242 244 248 247 252 247 249 253 252 253 252 254 264 269 271 275 280 287 291 290 292 291 296 297 297 298 300 302 304 306 307 311 314 316 318
239 240 240 239 240 244 243 241 241 245 245 246 250 253 248 251 253 257 258 258 263 264 265 269 271 275 283 284 288 288 292 296 295 295 299 300 300 302 304 306 310 313 314 316
241 240 241 244 242 246 247 246 245 246 248 250 251 256 251 252 254 256 262 264 262 262 264 266 271 278 281 285 288 290 294 294 294 296 297 297 299 301 303 305 308 310 311 314
242 243 243 244 246 249 248 249 249 248 250 254 257 258 256 252 255 255 258 262 263 261 262 266 271 277 280 284 289 293 293 293 295 294 295 296 298 299 301 304 306 308 311 312
245 244 247 247 248 249 250 252 250 253 257 257 255 258 259 257 256 255 255 258 263 266 266 265 267 269 276 281 285 288 289 290 290 293 293 295 296 298 301 303 305 307 309 311
245 244 246 246 248 249 251 252 254 255 254 257 258 258 258 258 258 259 257 256 258 261 264 265 269 273 275 279 282 285 287 288 290 290 291 293 295 298 299 302 304 306 309 310
245 247 246 246 252 252 255 255 255 254 257 256 257 256 258 258 259 259 259 258 258 259 261 264 268 271 274 278 281 285 286 287 288 289 290 292 295 296 298 301 302 305 307 309
244 247 246 243 247 251 250 253 255 256 258 259 258 256 255 257 259 261 261 262 263 263 264 265 267 270 275 278 281 282 283 285 286 287 289 293 295 296 298 300 302 304 305 306
242 242 243 244 244 247 249 250 252 254 257 258 258 258 257 255 256 257 259 261 263 264 265 266 270 273 276 278 278 279 282 285 286 287 290 292 293 295 297 299 301 302 303 305
241 243 245 246 246 247 247 249 249 252 253 255 256 257 258 259 259 259 260 262 263 265 268 270 272 275 277 276 277 280 282 283 285 286 288 290 292 293 295 297 299 301 302 305
Height
5883 5885 5886 5888 5889 5891 5893 5894 5896 5897 5899 5900 5901 5903 5905 5907 5908 5910 5911 5912 5913 5914 5915 5915 5915 5915 5915 5914 5913 5912 5911 5909 5907 5906 5904 5903 5901 5900 5897 5895 5892 5890 5887 5884
5883 5883 5886 5888 5889 5890 5892 5893 5895 5897 5898 5900 5901 5903 5904 5906 5908 5909 5911 5912 5913 5914 5914 5915 5915 5915 5915 5914 5913 5912 5910 5908 5906 5905 5903 5901 5900 5898 5896 5894 5891 5888 5885 5882
5881 5883 5884 5886 5888 5889 5891 5893 5894 5896 5898 5899 5901 5903 5904 5906 5908 5909 5911 5912 5913 5914 5914 5914 5915 5915 5915 5915 5914 5912 5910 5908 5906 5904 5902 5900 5898 5896 5894 5891 5889 5885 5882 5878
5879 5881 5883 5885 5887 5889 5890 5892 5894 5895 5897 5898 5900 5903 5903 5905 5907 5909 5910 5911 5913 5913 5913 5914 5915 5915 5915 5915 5914 5912 5911 5909 5907 5904 5901 5899 5897 5894 5892 5890 5887 5883 5880 5876
5877 5878 5880 5883 5885 5887 5890 5891 5893 5894 5896 5897 5900 5902 5903 5904 5906 5908 5909 5911 5912 5912 5913 5914 5914 5914 5914 5914 5913 5912 5910 5909 5906 5903 5901 5898 5896 5893 5890 5887 5884 5880 5877 5872
5874 5875 5878 5880 5882 5884 5886 5889 5891 5892 5894 5896 5898 5901 5902 5903 5905 5906 5908 5909 5911 5912 5912 5912 5913 5913 5913 5913 5912 5911 5909 5908 5905 5903 5901 5898 5895 5891 5888 5884 5880 5875 5871 5867
5869 5872 5874 5877 5880 5882 5884 5886 5888 5891 5892 5895 5896 5898 5900 5902 5904 5905 5907 5908 5909 5910 5911 5911 5911 5912 5912 5912 5911 5909 5908 5906 5904 5902 5899 5896 5893 5890 5886 5882 5877 5872 5866 5860
5865 5868 5870 5874 5876 5879 5881 5883 5885 5887 5889 5892 5893 5896 5899 5901 5902 5904 5905 5907 5908 5908 5909 5909 5910 5910 5909 5909 5909 5907 5906 5904 5902 5900 5897 5895 5892 5888 5884 5879 5874 5868 5863 5857
5860 5862 5866 5869 5871 5875 5878 5880 5883 5885 5886 5889 5891 5895 5897 5898 5900 5902 5903 5904 5905 5906 5906 5906 5907 5907 5906 5906 5906 5904 5903 5901 5899 5897 5894 5892 5888 5884 5880 5876 5871 5866 5860 5854
5855 5859 5861 5864 5866 5870 5873 5877 5879 5881 5884 5886 5888 5891 5894 5896 5898 5899 5900 5901 5902 5902 5903 5903 5903 5903 5903 5903 5902 5901 5900 5898 5895 5893 5891 5887 5884 5880 5876 5872 5867 5861 5856 5850
5850 5852 5857 5859 5862 5865 5868 5871 5874 5877 5879 5882 5885 5888 5890 5892 5894 5895 5896 5897 5898 5898 5899 5899 5899 5899 5899 5898 5898 5896 5895 5893 5891 5888 5886 5883 5880 5876 5871 5866 5861 5855 5849 5842
5843 5845 5850 5852 5856 5858 5862 5866 5868 5871 5876 5878 5881 5885 5886 5888 5890 5891 5892 5893 5894 5894 5894 5894 5894 5895 5894 5894 5892 5891 5889 5887 5885 5883 5881 5877 5874 5870 5865 5860 5854 5849 5843 5836
5837 5839 5842 5845 5849 5852 5856 5862 5865 5866 5869 5872 5873 5881 5881 5883 5884 5886 5887 5888 5889 5889 5889 5889 5889 5889 5889 5888 5886 5885 5883 5881 5879 5877 5874 5871 5868 5864 5859 5854 5848 5841 5836 5830
5827 5831 5836 5840 5842 5847 5851 5854 5857 5858 5859 5867 5868 5873 5876 5877 5878 5879 5880 5882 5883 5883 5883 5882 5882 5882 5882 5881 5879 5877 5876 5874 5872 5869 5867 5864 5861 5857 5852 5846 5840 5835 5829 5822
5819 5823 5827 5831 5834 5838 5842 5845 5848 5849 5857 5852 5866 5865 5870 5869 5870 5871 5874 5875 5877 5877 5876 5875 5875 5875 5874 5872 5871 5869 5868 5866 5863 5861 5859 5856 5852 5848 5843 5838 5832 5827 5821 5814
5811 5816 5817 5822 5825 5827 5830 5835 5838 5842 5846 5848 5857 5859 5865 5862 5863 5864 5865 5867 5868 5868 5869 5868 5867 5866 5866 5864 5863 5861 5860 5857 5855 5853 5850 5848 5844 5840 5835 5829 5823 5818 5811 5804
5801 5806 5809 5814 5815 5816 5819 5829 5831 5837 5840 5845 5846 5857 5856 5852 5854 5855 5855 5857 5859 5861 5861 5860 5859 5858 5857 5856 5853 5852 5850 5849 5846 5844 5841 5839 5834 5830 5825 5819 5814 5808 5802 5794
5790 5794 5797 5801 5804 5805 5816 5820 5825 5827 5832 5835 5838 5845 5849 5845 5844 5845 5846 5848 5852 5852 5852 5852 5850 5849 5849 5847 5846 5843 5841 5840 5837 5834 5832 5828 5824 5819 5814 5809 5804 5798 5791 5784
5779 5781 5784 5786 5793 5799 5800 5812 5817 5820 5825 5827 5828 5833 5839 5837 5835 5838 5837 5839 5841 5842 5842 5841 5839 5840 5838 5837 5836 5834 5832 5830 5827 5824 5821 5817 5813 5808 5803 5798 5793 5786 5779 5772
5764 5768 5769 5774 5778 5783 5795 5799 5804 5808 5812 5821 5820 5822 5825 5827 5825 5836 5822 5825 5828 5830 5830 5831 5830 5829 5828 5827 5824 5823 5821 5818 5816 5812 5809 5805 5801 5796 5792 5787 5780 5774 5767 5760
5750 5755 5756 5762 5763 5769 5783 5788 5793 5799 5808 5806 5808 5809 5811 5815 5816 5815 5815 5816 5816 5816 5818 5819 5819 5818 5818 5817 5815 5814 5811 5808 5804 5801 5797 5793 5788 5784 5779 5774 5768 5761 5755 5747
5733 5737 5743 5749 5747 5751 5774 5775 5783 5787 5791 5793 5795 5797 5798 5801 5802 5802 5803 5804 5804 5805 5804 5805 5806 5806 5806 5805 5804 5801 5799 5795 5792 5788 5784 5780 5776 5772 5766 5761 5755 5748 5741 5733
5706 5723 5729 5732 5739 5749 5754 5760 5762 5770 5774 5780 5782 5785 5785 5787 5790 5791 5790 5791 5792 5793 5793 5793 5793 5794 5794 5793 5791 5789 5786 5783 5779 5775 5771 5768 5763 5759 5753 5748 5741 5734 5727 5720
5694 5699 5705 5712 5730 5733 5739 5741 5746 5753 5759 5762 5766 5770 5773 5773 5775 5776 5778 5778 5778 5778 5780 5781 5781 5781 5781 5780 5778 5776 5773 5769 5766 5762 5759 5755 5750 5744 5739 5733 5726 5719 5712 5704
5672 5678 5682 5691 5713 5718 5719 5725 5729 5736 5740 5746 5749 5753 5755 5757 5759 5760 5761 5763 5764 5764 5766 5767 5767 5767 5767 5766 5763 5761 5759 5755 5751 5748 5744 5740 5734 5729 5723 5717 5710 5704 5696 5689
5646 5658 5663 5682 5699 5694 5702 5706 5714 5718 5723 5726 5729 5734 5738 5739 5742 5744 5746 5748 5748 5749 5750 5751 5752 5752 5753 5749 5748 5746 5743 5740 5736 5732 5728 5724 5719 5713 5707 5701 5694 5687 5679 5672